TimeEST,TemperatureF,Dew PointF,Humidity,Sea Level PressureIn,VisibilityMPH,Wind Direction,Wind SpeedMPH,Gust SpeedMPH,PrecipitationIn,Events,Conditions,WindDirDegrees,DateUTC
12:53 AM,30.0,21.9,72,29.96,8.0,Calm,Calm,-,N/A,,Clear,0,2014-02-02 05:53:00
1:53 AM,30.0,21.9,72,29.95,8.0,NNW,3.5,-,N/A,,Clear,340,2014-02-02 06:53:00
2:53 AM,28.9,21.0,72,29.95,7.0,Calm,Calm,-,N/A,,Clear,0,2014-02-02 07:53:00
3:53 AM,28.9,21.0,72,29.94,7.0,Calm,Calm,-,N/A,,Clear,0,2014-02-02 08:53:00
4:53 AM,30.0,23.0,75,29.95,9.0,Calm,Calm,-,N/A,,Overcast,0,2014-02-02 09:53:00
5:53 AM,32.0,26.1,79,29.95,8.0,Calm,Calm,-,N/A,,Overcast,0,2014-02-02 10:53:00
6:53 AM,34.0,27.0,75,29.96,8.0,Calm,Calm,-,N/A,,Overcast,0,2014-02-02 11:53:00
7:53 AM,35.1,26.1,70,29.98,8.0,Calm,Calm,-,N/A,,Mostly Cloudy,0,2014-02-02 12:53:00
8:53 AM,37.9,27.0,65,29.99,5.0,Calm,Calm,-,N/A,,Haze,0,2014-02-02 13:53:00
9:53 AM,39.9,25.0,55,30.03,7.0,Calm,Calm,-,N/A,,Overcast,0,2014-02-02 14:53:00
10:53 AM,43.0,27.0,53,30.01,8.0,NE,3.5,-,N/A,,Overcast,50,2014-02-02 15:53:00
11:53 AM,46.9,26.1,44,30.01,9.0,Calm,Calm,-,N/A,,Overcast,0,2014-02-02 16:53:00
12:53 PM,52.0,30.0,43,29.97,4.0,Calm,Calm,-,N/A,,Haze,0,2014-02-02 17:53:00
1:53 PM,54.0,30.9,41,29.94,10.0,NE,4.6,-,N/A,,Overcast,40,2014-02-02 18:53:00
2:53 PM,55.9,34.0,44,29.92,9.0,North,5.8,-,N/A,,Clear,360,2014-02-02 19:53:00
3:53 PM,52.0,33.1,49,29.96,7.0,NNE,4.6,-,N/A,,Overcast,20,2014-02-02 20:53:00
4:53 PM,50.0,34.0,54,29.98,8.0,Calm,Calm,-,N/A,,Overcast,0,2014-02-02 21:53:00
5:53 PM,48.9,32.0,52,29.99,9.0,NNW,3.5,-,N/A,,Overcast,330,2014-02-02 22:53:00
6:53 PM,48.0,33.1,56,30.02,7.0,Calm,Calm,-,N/A,,Overcast,0,2014-02-02 23:53:00
7:53 PM,48.0,39.0,71,30.06,10.0,North,13.8,-,N/A,,Overcast,350,2014-02-03 00:53:00
8:02 PM,46.9,37.9,71,30.05,10.0,North,11.5,21.9,N/A,,Overcast,350,2014-02-03 01:02:00
8:20 PM,46.0,37.9,73,30.08,10.0,North,12.7,-,N/A,,Overcast,350,2014-02-03 01:20:00
8:53 PM,45.0,35.1,68,30.08,10.0,North,10.4,-,N/A,,Overcast,10,2014-02-03 01:53:00
9:53 PM,44.1,34.0,68,30.10,10.0,NNW,10.4,-,N/A,,Overcast,340,2014-02-03 02:53:00
10:21 PM,44.1,34.0,68,30.09,10.0,NNW,9.2,-,N/A,,Overcast,340,2014-02-03 03:21:00
10:53 PM,43.0,33.1,68,30.11,10.0,North,5.8,-,0.00,,Overcast,350,2014-02-03 03:53:00
11:53 PM,39.9,35.1,83,30.11,5.0,NNW,5.8,-,0.02,Rain,Light Rain,340,2014-02-03 04:53:00